Racecast

DISTRICT 1/2, 2A, 3A Championships

Lakewood HS · 5000m · Girls · Compiled · WA

152 runners from 2 divisions

These divisions were run separately. This is how their times compare, not how they finished — the places and scores below were never contested.

View full meet →

Team scores

Place Team Points 12345 67
1 Sehome (WA) 54 2 3 7 17 25 29 31
2 Glacier Peak (WA) 86 5 13 19 23 26 33 41
3 Mountlake Terrace (WA) 113 4 6 8 16 79 138
4 Bellingham (WA) 132 18 21 28 30 35 37 54
5 Burlington-Edison (WA) 165 1 34 36 46 48 75
6 Cedarcrest (WA) 172 11 20 40 49 52 59 86
7 Oak Harbor (WA) 173 9 12 32 55 65 76 92
8 Lakewood (WA) 226 38 42 45 50 51 57 67
9 Lake Washington (WA) 252 10 22 56 63 101 102 119
10 Shorecrest (WA) 294 14 27 62 80 111 112 113
11 Stanwood (WA) 297 44 53 60 69 71 97 103
12 Shorewood (WA) 342 24 72 74 85 87 89 98
13 Anacortes (WA) 368 43 47 78 82 118 120 122
14 Sedro-Woolley (WA) 374 15 61 91 99 108 115 116
15 Squalicum (WA) 397 68 70 81 84 94 96 114
16 Ferndale (WA) 402 39 64 90 104 105 117 123
17 Marysville-Getchell (WA) 405 66 73 77 83 106 134 136
18 Lynden (WA) 505 58 88 100 129 130 137
19 Meadowdale (WA) 556 95 107 109 121 124 126 135
20 Marysville-Pilchuck (WA) 593 93 110 125 132 133 140 142
21 Granite Falls (WA) 666 127 128 131 139 141

Not scored, fewer than five finishers: Archbishop Murphy (4), Sammamish (3), Everett (3)

Results

Place Athlete Grade School Time Rating Points Actual race
1 RaynJoy Norton 12 Burlington-Edison (WA) 1 18:15.3 136.9 1 1
2 Ruby Watson 9 Sehome (WA) 1 18:37.8 134.1 2 2
3 Emily Pittis 11 Sehome (WA) 2 18:42.2 133.6 3 3
4 Katherine Gustafson 9 Mountlake Terrace (WA) 1 18:59.3 131.6 4 1
5 Heidi Smith 9 Glacier Peak (WA) 1 19:00.4 131.5 5 2
6 Ella Schroth 10 Mountlake Terrace (WA) 2 19:01.8 131.3 6 3
7 Ellie Rowan-Arnett 9 Sehome (WA) 3 19:03.8 131.1 7 4
8 Sophia Nelson 9 Mountlake Terrace (WA) 3 19:13.0 130.1 8 4
9 Jonalynn Horn 11 Oak Harbor (WA) 1 19:14.5 129.9 9 5
10 Katia Matora 11 Lake Washington (WA) 1 19:19.7 129.3 10 5
11 Olivia Waterman 12 Cedarcrest (WA) 1 19:26.9 128.5 11 6
12 Alexandra Laiblin 12 Oak Harbor (WA) 2 19:27.7 128.4 12 6
13 Katherine Dittmann 11 Glacier Peak (WA) 2 19:28.2 128.4 13 7
14 Gigi Vujovich 11 Shorecrest (WA) 1 19:29.8 128.2 14 8
15 Pascale De Sa E Silva 11 Sammamish (WA) 1 19:35.9 127.5 7
16 Stephanie Schlimmer 11 Sedro-Woolley (WA) 1 19:38.2 127.3 15 8
17 Katherine Walter 10 Mountlake Terrace (WA) 4 19:38.9 127.2 16 9
18 Jessa Clark 11 Sehome (WA) 4 19:42.0 126.9 17 9
19 Leah Veldhuisen 11 Bellingham (WA) 1 19:42.4 126.8 18 10
20 Megan Davis 12 Glacier Peak (WA) 3 19:44.7 126.6 19 10
21 Amelia Anderson 12 Cedarcrest (WA) 2 19:47.7 126.2 20 11
22 Madeline Prentiss 9 Bellingham (WA) 2 19:49.0 126.1 21 12
23 Kristen Buckingham 9 Lake Washington (WA) 2 19:49.6 126.1 22 13
24 Mikayla Ingram 12 Glacier Peak (WA) 4 19:55.3 125.4 23 11
25 Emily Ransom 11 Shorewood (WA) 1 19:56.2 125.4 24 12
26 Lindsey Dorney 11 Archbishop Murphy (WA) 1 20:00.2 124.9 14
27 Aili Emory 10 Sehome (WA) 5 20:03.8 124.6 25 15
28 Natalie Church 9 Glacier Peak (WA) 5 20:04.2 124.5 26 13
29 Elise Froebe 11 Shorecrest (WA) 2 20:06.5 124.3 27 14
30 Maya Norton 12 Bellingham (WA) 3 20:07.7 124.2 28 16
31 Dana Ringler 10 Sehome (WA) 6 20:09.9 123.9 29 17
32 Abby Walker 11 Bellingham (WA) 4 20:10.0 123.9 30 18
33 Rebekah Oviatt 10 Sehome (WA) 7 20:11.3 123.8 31 19
34 Laura Rodeheffer 9 Oak Harbor (WA) 3 20:14.5 123.5 32 15
35 Samantha Northrop 12 Glacier Peak (WA) 6 20:20.7 122.8 33 16
36 Katie Studebaker 12 Burlington-Edison (WA) 2 20:21.5 122.8 34 20
37 Julia Latimer 11 Bellingham (WA) 5 20:22.5 122.7 35 21
38 Ciera Gordon 12 Burlington-Edison (WA) 3 20:24.0 122.5 36 22
39 Nicole Burbank 12 Bellingham (WA) 6 20:25.9 122.3 37 23
40 Britney Albro 10 Lakewood (WA) 1 20:26.4 122.3 38 24
41 Jillian Anderson 10 Ferndale (WA) 1 20:29.8 121.9 39 17
42 Diana Carr 12 Cedarcrest (WA) 3 20:30.2 121.9 40 25
43 Haley Longstreth 11 Glacier Peak (WA) 7 20:31.0 121.8 41 18
44 Rachel Roberts 11 Sammamish (WA) 2 20:41.8 120.8 26
45 Alisa Smith 12 Lakewood (WA) 2 20:43.0 120.6 42 27
46 Grace Dzieciuch 9 Anacortes (WA) 1 20:44.2 120.5 43 28
47 Caylyn Rich 10 Stanwood (WA) 1 20:44.4 120.5 44 19
48 Darby Throndsen 11 Lakewood (WA) 3 20:46.1 120.3 45 29
49 Drew Williams 11 Everett (WA) 1 20:48.1 120.1 20
50 Meghan Templeton 12 Burlington-Edison (WA) 4 20:50.7 119.9 46 30
51 Heather Rolph 9 Anacortes (WA) 2 20:52.7 119.7 47 31
52 Olivia Capron 11 Burlington-Edison (WA) 5 20:53.2 119.7 48 32
53 Madi Shinn 9 Cedarcrest (WA) 4 20:55.7 119.4 49 33
54 Keely Hall 9 Lakewood (WA) 4 21:08.2 118.2 50 34
55 Lilly Whitehead 10 Lakewood (WA) 5 21:10.0 118.1 51 35
56 Courtney Tobin 9 Cedarcrest (WA) 5 21:11.4 117.9 52 36
57 Corina Pierce 11 Stanwood (WA) 2 21:11.9 117.9 53 21
58 Sarah Rubin 12 Bellingham (WA) 7 21:12.5 117.8 54 37
59 Marisa Sligh 11 Oak Harbor (WA) 4 21:15.9 117.5 55 22
60 Bethany Clowers 9 Lake Washington (WA) 3 21:16.8 117.4 56 38
61 Rachel Sowards 12 Lakewood (WA) 6 21:18.7 117.3 57 39
62 Grace Sauter 10 Lynden (WA) 1 21:18.9 117.2 58 40
63 Megan Brimley 12 Cedarcrest (WA) 6 21:19.8 117.2 59 41
64 Jeriah Bankson 11 Stanwood (WA) 3 21:19.8 117.2 60 23
65 Kaylyn Barnes 9 Sedro-Woolley (WA) 2 21:23.3 116.8 61 42
66 Rebecca Walton 11 Shorecrest (WA) 3 21:27.9 116.4 62 24
67 Chloe Burns 12 Lake Washington (WA) 4 21:29.0 116.3 63 43
68 Jana Peterson 10 Ferndale (WA) 2 21:39.7 115.4 64 25
69 Kaitlyn Chelberg 9 Oak Harbor (WA) 5 21:40.5 115.3 65 26
70 Sam Gibson 12 Marysville-Getchell (WA) 1 21:41.8 115.2 66 27
71 Anna Main 11 Sammamish (WA) 3 21:44.7 114.9 44
72 Sara Newman 12 Lakewood (WA) 7 21:47.3 114.7 67 45
73 Rachel Phipps 12 Squalicum (WA) 1 21:57.7 113.8 68 46
74 Briannna Cumming 9 Stanwood (WA) 4 21:59.6 113.6 69 28
75 Christina Lilleston 12 Squalicum (WA) 2 21:59.7 113.6 70 47
76 Rowan Wells-Edwards 9 Everett (WA) 2 22:01.2 113.5 29
77 Samantha Powell 12 Stanwood (WA) 5 22:03.3 113.3 71 30
78 Kelsey Machado 12 Shorewood (WA) 2 22:03.7 113.3 72 31
79 Taylor Roscoe 9 Marysville-Getchell (WA) 2 22:05.9 113.1 73 32
80 Morgan Aho 9 Shorewood (WA) 3 22:06.6 113.0 74 33
81 Christina Sosa 12 Burlington-Edison (WA) 6 22:12.2 112.6 75 48
82 Suzanne Kaltenbach 10 Oak Harbor (WA) 6 22:16.0 112.2 76 34
83 Hannah Fink 12 Marysville-Getchell (WA) 3 22:18.1 112.1 77 35
84 Arminta (Minta) Demonte 11 Anacortes (WA) 3 22:21.5 111.8 78 49
85 Maddie Dellinger 11 Mountlake Terrace (WA) 5 22:23.3 111.6 79 36
86 Alegra Batara 9 Shorecrest (WA) 4 22:25.1 111.5 80 37
87 Sydney Arndorfer 11 Squalicum (WA) 3 22:26.0 111.4 81 50
88 Whitney Hogge 9 Anacortes (WA) 4 22:28.3 111.2 82 51
89 Nicole Buell 11 Marysville-Getchell (WA) 4 22:29.7 111.1 83 38
90 Hailey Linville 10 Squalicum (WA) 4 22:35.0 110.7 84 52
91 Phoebe Crampton-Haywood 11 Shorewood (WA) 4 22:37.9 110.4 85 39
92 Kiana Ward 10 Cedarcrest (WA) 7 22:38.8 110.4 86 53
93 Rachel Hansen 9 Shorewood (WA) 5 22:38.8 110.4 87 40
94 Frances Sauter 12 Lynden (WA) 2 22:39.5 110.3 88 54
95 Connie Castaneda 11 Shorewood (WA) 6 22:41.6 110.1 89 41
96 Laura Tkacsik 10 Ferndale (WA) 3 22:45.6 109.8 90 42
97 Teracita Shanes 10 Sedro-Woolley (WA) 3 22:51.6 109.3 91 55
98 Carolynn Wicker 9 Oak Harbor (WA) 7 22:51.8 109.3 92 43
99 Amanda Venables 11 Marysville-Pilchuck (WA) 1 22:52.8 109.2 93 44
100 Justine Johnson 12 Squalicum (WA) 5 22:53.9 109.1 94 56
101 Megan Fridge 12 Meadowdale (WA) 1 22:59.4 108.7 95 45
102 Kristin Smith 12 Squalicum (WA) 6 23:02.5 108.5 96 57
103 Sofia Sobotta 12 Stanwood (WA) 6 23:03.9 108.3 97 46
104 Nora Alexander 12 Shorewood (WA) 7 23:06.4 108.2 98 47
105 Sydnee Rooks 11 Sedro-Woolley (WA) 4 23:07.7 108.1 99 58
106 Alex Schulhauser 11 Lynden (WA) 3 23:10.0 107.9 100 59
107 Emily Austin 10 Archbishop Murphy (WA) 2 23:11.7 107.8 60
108 Tarah Fekri 12 Lake Washington (WA) 5 23:19.7 107.1 101 61
109 Sara Anderson 9 Lake Washington (WA) 6 23:20.2 107.1 102 62
110 Vivian Monhollen 9 Stanwood (WA) 7 23:21.6 107.0 103 48
111 Kathryn Vajda 11 Ferndale (WA) 4 23:28.5 106.5 104 49
112 Mikaela Hernandez 12 Ferndale (WA) 5 23:29.5 106.4 105 50
113 Kristen Gray 9 Marysville-Getchell (WA) 5 23:34.0 106.1 106 51
114 Alexandria Chang 10 Meadowdale (WA) 2 23:34.9 106.0 107 52
115 Gabrielle Aven 9 Sedro-Woolley (WA) 5 23:35.7 105.9 108 63
116 Amelia Ball 11 Meadowdale (WA) 3 23:37.1 105.8 109 53
117 Kacey Moore 10 Archbishop Murphy (WA) 3 23:37.2 105.8 64
118 Gemma Miller 12 Archbishop Murphy (WA) 4 23:38.0 105.8 65
119 Natasha Flitz 10 Marysville-Pilchuck (WA) 2 23:39.9 105.6 110 54
120 Vivi Wu 10 Shorecrest (WA) 5 23:43.8 105.3 111 55
121 Abigail Knowles 9 Shorecrest (WA) 6 23:44.1 105.3 112 56
122 Bianca Dang 10 Shorecrest (WA) 7 23:49.2 104.9 113 57
123 Tara Knight 11 Squalicum (WA) 7 23:50.0 104.9 114 66
124 Esmeralda Munoz 11 Sedro-Woolley (WA) 6 23:52.7 104.7 115 67
125 Emily Huggins 11 Sedro-Woolley (WA) 7 23:55.2 104.5 116 68
126 Kara Collins 11 Ferndale (WA) 6 23:57.8 104.3 117 58
127 Stella Gillman 10 Anacortes (WA) 5 23:59.9 104.1 118 69
128 Siri Hedreen 10 Lake Washington (WA) 7 24:01.7 104.0 119 70
129 Taleah Phillips 9 Anacortes (WA) 6 24:06.9 103.6 120 71
130 Emilie Mathiason 9 Meadowdale (WA) 4 24:09.9 103.4 121 59
131 Emily Kapus 11 Everett (WA) 3 24:16.6 102.9 60
132 Fiona Frein 9 Anacortes (WA) 7 24:21.8 102.6 122 72
133 Katherine Chamblin 9 Ferndale (WA) 7 24:36.6 101.6 123 61
134 Hyangsook Kwak 12 Meadowdale (WA) 5 24:39.4 101.4 124 62
135 Trinity Wolfington 10 Marysville-Pilchuck (WA) 3 24:48.6 100.7 125 63
136 Malia Dagdag 12 Meadowdale (WA) 6 24:56.8 100.2 126 64
137 Emily Rice 11 Granite Falls (WA) 1 25:04.2 99.7 127 73
138 Gabriella Chavez 11 Granite Falls (WA) 2 25:15.0 99.0 128 74
139 Cynthia Anker 12 Lynden (WA) 4 25:17.4 98.8 129 75
140 Morgan Nims 11 Lynden (WA) 5 25:35.5 97.7 130 76
141 Mckenzie Meyer 10 Granite Falls (WA) 3 25:37.9 97.5 131 77
142 Kayanna Andrews 11 Marysville-Pilchuck (WA) 4 25:49.8 96.8 132 65
143 Jennifer Christenson 11 Marysville-Pilchuck (WA) 5 26:28.6 94.4 133 66
144 Amber Farrell 12 Marysville-Getchell (WA) 6 26:38.9 93.8 134 67
145 Jackie Shaw 9 Meadowdale (WA) 7 26:40.6 93.7 135 68
146 Della Willem 10 Marysville-Getchell (WA) 7 26:43.4 93.5 136 69
147 Danika Miedema 11 Lynden (WA) 6 26:52.3 93.0 137 78
148 Vesta Baumgartner 9 Mountlake Terrace (WA) 6 26:59.6 92.6 138 70
149 Mandi Cook 10 Granite Falls (WA) 4 27:09.5 92.0 139 79
150 Lauren Edgar 9 Marysville-Pilchuck (WA) 6 27:19.6 91.5 140 71
151 Kenna Todd 10 Granite Falls (WA) 5 27:20.4 91.4 141 80
152 Jamie Hollister 12 Marysville-Pilchuck (WA) 7 27:26.1 91.1 142 72